When you browse on this site, cookies collect data to enhance your experience and personalize the content and advertising you see.
Visit our Privacy Policy to learn more. By continuing to use the site, you agree to this use of cookies and data.
  • In United Kingdom
  • List of Countries
  • For 7 days
  • Water Temperature
  • Weather Map
  • Weather Widgets
  • user-avatar
    Login

    Hourly Weather Caracal

    Today, 16 September, Monday

    Time Temperature Precipitation Wind Pressure Humidity
    00:00 +16°C° 0 mm 0 mps 756 mmHg 49%
    01:00 +16°C° 0 mm 0 mps 756 mmHg 51%
    02:00 +16°C° 0 mm 1 mps 756 mmHg 53%
    03:00 +16°C° 0 mm 1 mps 756 mmHg 54%
    04:00 +15°C° 0 mm 1 mps 755 mmHg 55%
    05:00 +15°C° 0 mm 1 mps 755 mmHg 56%
    06:00 +18°C° 0 mm 1 mps 755 mmHg 52%
    07:00 +19°C° 0 mm 1 mps 754 mmHg 47%
    08:00 +20°C° 0 mm 2 mps 754 mmHg 43%
    09:00 +23°C° 0 mm 2 mps 754 mmHg 38%
    10:00 +26°C° 0 mm 3 mps 754 mmHg 32%
    11:00 +28°C° 0 mm 3 mps 753 mmHg 27%
    12:00 +30°C° 0 mm 3 mps 753 mmHg 24%
    13:00 +31°C° 0 mm 3 mps 752 mmHg 21%
    14:00 +33°C° 0 mm 3 mps 752 mmHg 19%
    15:00 +33°C° 0 mm 3 mps 751 mmHg 18%
    16:00 +34°C° 0 mm 2 mps 751 mmHg 17%
    17:00 +34°C° 0 mm 2 mps 751 mmHg 16%
    18:00 +30°C° 0 mm 2 mps 751 mmHg 20%
    19:00 +27°C° 0 mm 2 mps 751 mmHg 24%
    20:00 +25°C° 0 mm 2 mps 751 mmHg 28%
    21:00 +23°C° 0 mm 2 mps 751 mmHg 31%
    22:00 +21°C° 0 mm 2 mps 751 mmHg 34%
    23:00 +20°C° 0 mm 2 mps 751 mmHg 37%

    Tomorrow, 17 September, Tuesday

    Time Temperature Precipitation Wind Pressure Humidity
    00:00 +19°C° 0 mm 2 mps 751 mmHg 39%
    01:00 +18°C° 0 mm 2 mps 751 mmHg 42%
    02:00 +17°C° 0 mm 3 mps 751 mmHg 44%
    03:00 +17°C° 0 mm 2 mps 751 mmHg 46%
    04:00 +17°C° 0 mm 2 mps 751 mmHg 48%
    05:00 +16°C° 0 mm 2 mps 750 mmHg 49%
    06:00 +18°C° 0 mm 2 mps 751 mmHg 46%
    07:00 +19°C° 0 mm 2 mps 751 mmHg 42%
    08:00 +21°C° 0 mm 2 mps 751 mmHg 39%
    09:00 +25°C° 0 mm 2 mps 751 mmHg 34%
    10:00 +27°C° 0 mm 2 mps 751 mmHg 30%
    11:00 +30°C° 0 mm 2 mps 751 mmHg 25%
    12:00 +33°C° 0 mm 3 mps 750 mmHg 23%
    13:00 +34°C° 0 mm 3 mps 750 mmHg 21%
    14:00 +36°C° 0 mm 4 mps 749 mmHg 18%
    15:00 +35°C° 0 mm 4 mps 749 mmHg 18%
    16:00 +35°C° 0 mm 4 mps 748 mmHg 18%
    17:00 +35°C° 0 mm 4 mps 748 mmHg 18%
    18:00 +32°C° 0 mm 4 mps 748 mmHg 22%
    19:00 +29°C° 0 mm 3 mps 748 mmHg 26%
    20:00 +26°C° 0 mm 3 mps 749 mmHg 30%
    21:00 +25°C° 0 mm 2 mps 749 mmHg 34%
    22:00 +24°C° 0 mm 2 mps 749 mmHg 38%
    23:00 +22°C° 0 mm 1 mps 749 mmHg 42%

    Day after tomorrow, 18 September, Wednesday

    Time Temperature Precipitation Wind Pressure Humidity
    00:00 +22°C° 0 mm 1 mps 749 mmHg 45%
    01:00 +20°C° 0 mm 2 mps 749 mmHg 47%
    02:00 +19°C° 0 mm 2 mps 749 mmHg 50%
    03:00 +19°C° 0 mm 2 mps 749 mmHg 52%
    04:00 +18°C° 0 mm 2 mps 749 mmHg 54%
    05:00 +18°C° 0 mm 2 mps 749 mmHg 56%
    06:00 +19°C° 0 mm 3 mps 749 mmHg 52%
    07:00 +21°C° 0 mm 3 mps 750 mmHg 48%
    08:00 +23°C° 0 mm 4 mps 751 mmHg 44%
    09:00 +25°C° 0 mm 5 mps 751 mmHg 39%
    10:00 +26°C° 0 mm 6 mps 752 mmHg 34%
    11:00 +27°C° 0 mm 7 mps 752 mmHg 29%
    12:00 +26°C° 0 mm 7 mps 752 mmHg 32%
    13:00 +24°C° 0 mm 7 mps 753 mmHg 35%
    14:00 +23°C° 0 mm 7 mps 753 mmHg 37%
    15:00 +23°C° 0 mm 6 mps 753 mmHg 35%
    16:00 +22°C° 0 mm 6 mps 753 mmHg 33%
    17:00 +22°C° 0 mm 6 mps 753 mmHg 30%
    18:00 +20°C° 0 mm 6 mps 754 mmHg 32%
    19:00 +17°C° 0 mm 5 mps 754 mmHg 34%
    20:00 +16°C° 0 mm 5 mps 755 mmHg 35%
    21:00 +15°C° 0 mm 4 mps 755 mmHg 38%
    22:00 +14°C° 0 mm 4 mps 755 mmHg 40%
    23:00 +13°C° 0 mm 3 mps 756 mmHg 42%

    19 September, Thursday

    Time Temperature Precipitation Wind Pressure Humidity
    00:00 +13°C° 0 mm 3 mps 756 mmHg 42%
    01:00 +13°C° 0 mm 3 mps 756 mmHg 42%
    02:00 +13°C° 0 mm 3 mps 756 mmHg 42%
    03:00 +13°C° 0 mm 3 mps 756 mmHg 44%
    04:00 +12°C° 0 mm 3 mps 756 mmHg 46%
    05:00 +11°C° 0 mm 3 mps 756 mmHg 47%
    06:00 +12°C° 0 mm 3 mps 756 mmHg 46%
    07:00 +12°C° 0 mm 3 mps 756 mmHg 44%
    08:00 +13°C° 0 mm 3 mps 756 mmHg 43%
    09:00 +14°C° 0 mm 3 mps 756 mmHg 40%
    10:00 +17°C° 0 mm 2 mps 756 mmHg 37%
    11:00 +18°C° 0 mm 2 mps 756 mmHg 34%
    12:00 +20°C° 0 mm 2 mps 756 mmHg 30%
    13:00 +21°C° 0 mm 2 mps 755 mmHg 26%
    14:00 +24°C° 0 mm 2 mps 755 mmHg 23%
    15:00 +24°C° 0 mm 3 mps 754 mmHg 21%
    16:00 +24°C° 0 mm 3 mps 754 mmHg 19%
    17:00 +25°C° 0 mm 3 mps 754 mmHg 18%
    18:00 +22°C° 0 mm 3 mps 754 mmHg 20%
    19:00 +19°C° 0 mm 3 mps 754 mmHg 22%
    20:00 +17°C° 0 mm 3 mps 755 mmHg 25%
    21:00 +16°C° 0 mm 3 mps 755 mmHg 27%
    22:00 +14°C° 0 mm 4 mps 755 mmHg 30%
    23:00 +13°C° 0 mm 4 mps 755 mmHg 32%

    20 September, Friday

    Time Temperature Precipitation Wind Pressure Humidity
    00:00 +12°C° 0 mm 4 mps 756 mmHg 34%
    01:00 +12°C° 0 mm 4 mps 756 mmHg 35%
    02:00 +11°C° 0 mm 4 mps 756 mmHg 37%
    03:00 +10°C° 0 mm 4 mps 756 mmHg 41%
    04:00 +9°C° 0 mm 3 mps 756 mmHg 45%
    05:00 +8°C° 0 mm 3 mps 756 mmHg 50%
    06:00 +9°C° 0 mm 2 mps 757 mmHg 47%
    07:00 +10°C° 0 mm 2 mps 757 mmHg 45%
    08:00 +13°C° 0 mm 2 mps 757 mmHg 42%
    09:00 +15°C° 0 mm 2 mps 757 mmHg 37%
    10:00 +17°C° 0 mm 2 mps 758 mmHg 32%
    11:00 +19°C° 0 mm 2 mps 758 mmHg 28%
    12:00 +19°C° 0 mm 2 mps 757 mmHg 25%
    13:00 +20°C° 0 mm 3 mps 757 mmHg 23%
    14:00 +21°C° 0 mm 3 mps 757 mmHg 21%
    15:00 +21°C° 0 mm 4 mps 757 mmHg 19%
    16:00 +21°C° 0 mm 4 mps 757 mmHg 17%
    17:00 +21°C° 0 mm 4 mps 757 mmHg 15%
    18:00 +19°C° 0 mm 4 mps 757 mmHg 18%
    19:00 +17°C° 0 mm 4 mps 758 mmHg 21%
    20:00 +13°C° 0 mm 5 mps 759 mmHg 24%
    21:00 +12°C° 0 mm 4 mps 759 mmHg 29%
    22:00 +11°C° 0 mm 3 mps 760 mmHg 33%
    23:00 +10°C° 0 mm 3 mps 761 mmHg 38%

    21 September, Saturday

    Time Temperature Precipitation Wind Pressure Humidity
    00:00 +9°C° 0 mm 2 mps 761 mmHg 42%
    01:00 +8°C° 0 mm 2 mps 761 mmHg 47%
    02:00 +8°C° 0 mm 1 mps 762 mmHg 51%
    03:00 +8°C° 0 mm 1 mps 762 mmHg 52%
    04:00 +7°C° 0 mm 1 mps 762 mmHg 54%
    05:00 +7°C° 0 mm 1 mps 762 mmHg 55%
    06:00 +8°C° 0 mm 1 mps 762 mmHg 52%
    07:00 +9°C° 0 mm 1 mps 763 mmHg 48%
    08:00 +11°C° 0 mm 1 mps 763 mmHg 45%
    09:00 +13°C° 0 mm 2 mps 763 mmHg 39%
    10:00 +15°C° 0 mm 2 mps 763 mmHg 34%
    11:00 +17°C° 0 mm 3 mps 763 mmHg 29%
    12:00 +18°C° 0 mm 2 mps 762 mmHg 26%
    13:00 +19°C° 0 mm 2 mps 762 mmHg 23%
    14:00 +21°C° 0 mm 1 mps 761 mmHg 20%
    15:00 +21°C° 0 mm 1 mps 761 mmHg 20%
    16:00 +21°C° 0 mm 1 mps 761 mmHg 20%
    17:00 +21°C° 0 mm 1 mps 761 mmHg 20%
    18:00 +17°C° 0 mm 2 mps 761 mmHg 23%
    19:00 +15°C° 0 mm 2 mps 762 mmHg 27%
    20:00 +13°C° 0 mm 2 mps 762 mmHg 30%
    21:00 +13°C° 0 mm 2 mps 763 mmHg 31%
    22:00 +12°C° 0 mm 2 mps 763 mmHg 32%
    23:00 +10°C° 0 mm 2 mps 763 mmHg 33%
    Show more